When you browse on this site, cookies collect data to enhance your experience and personalize the content and advertising you see.
Visit our Privacy Policy to learn more. By continuing to use the site, you agree to this use of cookies and data.
  • In Austria
  • List of Countries
  • For 7 days
  • Water Temperature
  • Weather Map
  • News
  • Weather Widgets
  • user-avatar
    Login

    Hourly Weather Macheta

    Today, 26 January, Sunday

    Time Temperature Precipitation Wind Pressure Humidity
    00:00 +15°C° 0 mm 0 mps 583 mmHg 97%
    01:00 +15°C° 0 mm 0 mps 583 mmHg 97%
    02:00 +15°C° 0 mm 0 mps 583 mmHg 97%
    03:00 +14°C° 0 mm 0 mps 583 mmHg 97%
    04:00 +14°C° 0 mm 0 mps 583 mmHg 96%
    05:00 +14°C° 0 mm 0 mps 583 mmHg 96%
    06:00 +14°C° 0 mm 0 mps 583 mmHg 96%
    07:00 +14°C° 0 mm 0 mps 584 mmHg 96%
    08:00 +16°C° 0.1 mm 1 mps 584 mmHg 91%
    09:00 +19°C° 0.1 mm 1 mps 585 mmHg 86%
    10:00 +20°C° 0.1 mm 1 mps 586 mmHg 81%
    11:00 +21°C° 0.1 mm 1 mps 586 mmHg 76%
    12:00 +22°C° 0.1 mm 1 mps 586 mmHg 71%
    13:00 +23°C° 0.1 mm 2 mps 586 mmHg 66%
    14:00 +22°C° 0.5 mm 1 mps 585 mmHg 72%
    15:00 +21°C° 0.5 mm 1 mps 584 mmHg 77%
    16:00 +20°C° 0.5 mm 1 mps 583 mmHg 83%
    17:00 +19°C° 0.4 mm 1 mps 583 mmHg 88%
    18:00 +18°C° 0.4 mm 1 mps 583 mmHg 92%
    19:00 +15°C° 0.4 mm 0 mps 583 mmHg 97%
    20:00 +15°C° 0.2 mm 0 mps 583 mmHg 97%
    21:00 +15°C° 0.2 mm 0 mps 584 mmHg 97%
    22:00 +15°C° 0.2 mm 0 mps 584 mmHg 97%
    23:00 +14°C° 0.2 mm 0 mps 584 mmHg 97%

    Tomorrow, 27 January, Monday

    Time Temperature Precipitation Wind Pressure Humidity
    00:00 +14°C° 0.2 mm 0 mps 583 mmHg 97%
    01:00 +14°C° 0.2 mm 0 mps 583 mmHg 96%
    02:00 +14°C° 0.2 mm 0 mps 583 mmHg 97%
    03:00 +14°C° 0.2 mm 0 mps 582 mmHg 97%
    04:00 +13°C° 0.2 mm 0 mps 582 mmHg 97%
    05:00 +14°C° 0.1 mm 0 mps 582 mmHg 96%
    06:00 +14°C° 0.1 mm 0 mps 583 mmHg 96%
    07:00 +14°C° 0.1 mm 0 mps 584 mmHg 95%
    08:00 +15°C° 0.3 mm 0 mps 584 mmHg 91%
    09:00 +18°C° 0.3 mm 1 mps 585 mmHg 88%
    10:00 +19°C° 0.3 mm 1 mps 586 mmHg 84%
    11:00 +20°C° 0.5 mm 1 mps 586 mmHg 81%
    12:00 +21°C° 0.5 mm 1 mps 585 mmHg 77%
    13:00 +22°C° 0.5 mm 1 mps 585 mmHg 74%
    14:00 +21°C° 0.7 mm 1 mps 584 mmHg 76%
    15:00 +21°C° 0.7 mm 1 mps 584 mmHg 78%
    16:00 +20°C° 0.7 mm 1 mps 583 mmHg 80%
    17:00 +19°C° 0.5 mm 1 mps 583 mmHg 85%
    18:00 +16°C° 0.5 mm 0 mps 582 mmHg 91%
    19:00 +14°C° 0.5 mm 0 mps 582 mmHg 96%
    20:00 +14°C° 0.1 mm 0 mps 582 mmHg 96%
    21:00 +14°C° 0.1 mm 0 mps 583 mmHg 96%
    22:00 +13°C° 0.1 mm 0 mps 583 mmHg 96%
    23:00 +13°C° 0 mm 0 mps 583 mmHg 96%

    Day after tomorrow, 28 January, Tuesday

    Time Temperature Precipitation Wind Pressure Humidity
    00:00 +14°C° 0 mm 1 mps 582 mmHg 96%
    01:00 +14°C° 0 mm 1 mps 582 mmHg 96%
    02:00 +14°C° 0 mm 1 mps 582 mmHg 96%
    03:00 +13°C° 0 mm 1 mps 582 mmHg 96%
    04:00 +13°C° 0 mm 1 mps 581 mmHg 96%
    05:00 +13°C° 0 mm 1 mps 582 mmHg 95%
    06:00 +14°C° 0 mm 1 mps 582 mmHg 94%
    07:00 +14°C° 0 mm 1 mps 583 mmHg 93%
    08:00 +18°C° 0 mm 1 mps 584 mmHg 84%
    09:00 +20°C° 0 mm 1 mps 586 mmHg 75%
    10:00 +23°C° 0 mm 1 mps 587 mmHg 65%
    11:00 +23°C° 0.1 mm 1 mps 586 mmHg 65%
    12:00 +23°C° 0.1 mm 2 mps 586 mmHg 65%
    13:00 +23°C° 0.1 mm 2 mps 585 mmHg 65%
    14:00 +21°C° 0.3 mm 2 mps 584 mmHg 69%
    15:00 +20°C° 0.3 mm 2 mps 583 mmHg 73%
    16:00 +20°C° 0.3 mm 2 mps 583 mmHg 77%
    17:00 +19°C° 0.2 mm 1 mps 582 mmHg 83%
    18:00 +18°C° 0.2 mm 1 mps 582 mmHg 90%
    19:00 +14°C° 0.2 mm 0 mps 581 mmHg 96%
    20:00 +14°C° 0 mm 0 mps 582 mmHg 97%
    21:00 +14°C° 0 mm 0 mps 582 mmHg 97%
    22:00 +14°C° 0 mm 0 mps 582 mmHg 97%
    23:00 +14°C° 0 mm 0 mps 582 mmHg 96%

    29 January, Wednesday

    Time Temperature Precipitation Wind Pressure Humidity
    00:00 +14°C° 0 mm 0 mps 582 mmHg 95%
    01:00 +14°C° 0 mm 0 mps 582 mmHg 95%
    02:00 +13°C° 0 mm 0 mps 582 mmHg 95%
    03:00 +14°C° 0 mm 1 mps 581 mmHg 95%
    04:00 +14°C° 0 mm 1 mps 581 mmHg 95%
    05:00 +14°C° 0 mm 1 mps 582 mmHg 94%
    06:00 +14°C° 0 mm 1 mps 582 mmHg 93%
    07:00 +14°C° 0 mm 1 mps 583 mmHg 92%
    08:00 +18°C° 0 mm 1 mps 584 mmHg 81%
    09:00 +21°C° 0 mm 1 mps 586 mmHg 70%
    10:00 +24°C° 0 mm 1 mps 587 mmHg 59%
    11:00 +24°C° 0.1 mm 1 mps 586 mmHg 59%
    12:00 +24°C° 0.1 mm 1 mps 586 mmHg 59%
    13:00 +24°C° 0.1 mm 2 mps 585 mmHg 59%
    14:00 +23°C° 0.9 mm 1 mps 584 mmHg 66%
    15:00 +22°C° 0.9 mm 1 mps 583 mmHg 74%
    16:00 +20°C° 0.9 mm 1 mps 582 mmHg 81%
    17:00 +19°C° 0.5 mm 1 mps 582 mmHg 86%
    18:00 +18°C° 0.5 mm 1 mps 582 mmHg 91%
    19:00 +14°C° 0.5 mm 0 mps 581 mmHg 96%
    20:00 +14°C° 0 mm 0 mps 582 mmHg 96%
    21:00 +14°C° 0 mm 0 mps 582 mmHg 96%
    22:00 +14°C° 0 mm 0 mps 582 mmHg 96%
    23:00 +14°C° 0 mm 0 mps 582 mmHg 96%

    30 January, Thursday

    Time Temperature Precipitation Wind Pressure Humidity
    00:00 +13°C° 0 mm 0 mps 582 mmHg 96%
    01:00 +13°C° 0 mm 0 mps 581 mmHg 96%
    02:00 +13°C° 0 mm 0 mps 581 mmHg 95%
    03:00 +12°C° 0 mm 0 mps 581 mmHg 95%
    04:00 +12°C° 0 mm 0 mps 581 mmHg 95%
    05:00 +12°C° 0 mm 0 mps 581 mmHg 94%
    06:00 +13°C° 0 mm 0 mps 582 mmHg 93%
    07:00 +13°C° 0 mm 0 mps 583 mmHg 92%
    08:00 +15°C° 0.1 mm 0 mps 584 mmHg 85%
    09:00 +19°C° 0.1 mm 1 mps 585 mmHg 78%
    10:00 +21°C° 0.1 mm 1 mps 586 mmHg 71%
    11:00 +22°C° 0.3 mm 1 mps 586 mmHg 68%
    12:00 +23°C° 0.3 mm 2 mps 585 mmHg 66%
    13:00 +24°C° 0.3 mm 2 mps 585 mmHg 63%
    14:00 +23°C° 0.4 mm 2 mps 584 mmHg 66%
    15:00 +21°C° 0.4 mm 2 mps 583 mmHg 70%
    16:00 +20°C° 0.4 mm 2 mps 583 mmHg 73%
    17:00 +18°C° 0.2 mm 2 mps 582 mmHg 81%
    18:00 +18°C° 0.2 mm 1 mps 582 mmHg 88%
    19:00 +15°C° 0.2 mm 1 mps 581 mmHg 96%
    20:00 +14°C° 0 mm 1 mps 581 mmHg 96%
    21:00 +14°C° 0 mm 1 mps 582 mmHg 97%
    22:00 +13°C° 0 mm 0 mps 582 mmHg 97%
    23:00 +12°C° 0 mm 0 mps 581 mmHg 96%

    31 January, Friday

    Time Temperature Precipitation Wind Pressure Humidity
    00:00 +12°C° 0 mm 0 mps 581 mmHg 96%
    01:00 +12°C° 0 mm 0 mps 581 mmHg 95%
    02:00 +12°C° 0 mm 0 mps 581 mmHg 95%
    03:00 +12°C° 0 mm 0 mps 581 mmHg 95%
    04:00 +12°C° 0 mm 0 mps 581 mmHg 94%
    05:00 +12°C° 0 mm 0 mps 581 mmHg 93%
    06:00 +13°C° 0 mm 0 mps 582 mmHg 92%
    07:00 +14°C° 0 mm 1 mps 582 mmHg 91%
    08:00 +16°C° 0 mm 1 mps 584 mmHg 79%
    09:00 +19°C° 0 mm 1 mps 585 mmHg 67%
    10:00 +21°C° 0 mm 2 mps 586 mmHg 55%
    11:00 +23°C° 0 mm 2 mps 586 mmHg 50%
    12:00 +24°C° 0 mm 3 mps 585 mmHg 46%
    13:00 +24°C° 0 mm 3 mps 585 mmHg 42%
    14:00 +24°C° 0 mm 3 mps 585 mmHg 45%
    15:00 +22°C° 0 mm 3 mps 584 mmHg 49%
    16:00 +21°C° 0 mm 3 mps 583 mmHg 52%
    17:00 +19°C° 0 mm 2 mps 582 mmHg 65%
    18:00 +16°C° 0 mm 1 mps 582 mmHg 79%
    19:00 +14°C° 0 mm 1 mps 581 mmHg 92%
    20:00 +14°C° 0 mm 1 mps 581 mmHg 93%
    21:00 +13°C° 0 mm 1 mps 581 mmHg 94%
    22:00 +13°C° 0 mm 1 mps 582 mmHg 95%
    23:00 +13°C° 0 mm 1 mps 581 mmHg 95%
    Show more